QPF
0.00 0.00 0.00 0.00 0.00 0.00 0.00 0.00 0.00 0.00 0.00 0.00 0.00 0.00 0.00 0.00 0.00 0.00 0.00 0.00 0.00 0.00 0.00 0.00 0.00 0.00 0.00 0.00 0.00 0.00 0.00 0.01 0.02 0.05 0.08 0.12 0.14 0.09 0.06 0.06 0.05 0.04 0.03 0.04
0.00 0.00 0.00 0.00 0.00 0.00 0.00 0.00 0.00 0.00 0.00 0.00 0.00 0.00 0.00 0.00 0.00 0.00 0.00 0.00 0.00 0.00 0.00 0.00 0.00 0.00 0.00 0.00 0.00 0.00 0.00 0.00 0.00 0.00 0.02 0.04 0.04 0.04 0.04 0.04 0.03 0.03 0.02 0.02
0.00 0.00 0.00 0.00 0.00 0.00 0.00 0.00 0.00 0.00 0.00 0.00 0.00 0.00 0.00 0.00 0.00 0.00 0.00 0.00 0.00 0.00 0.00 0.00 0.00 0.00 0.00 0.00 0.00 0.00 0.00 0.00 0.00 0.00 0.00 0.00 0.01 0.00 0.01 0.01 0.01 0.01 0.01 0.00
0.01 0.01 0.01 0.00 0.00 0.00 0.00 0.00 0.00 0.00 0.00 0.00 0.00 0.00 0.00 0.00 0.00 0.00 0.00 0.00 0.00 0.00 0.00 0.00 0.00 0.00 0.00 0.00 0.00 0.00 0.00 0.00 0.00 0.00 0.00 0.00 0.00 0.00 0.00 0.00 0.00 0.00 0.00 0.00
0.02 0.01 0.00 0.00 0.00 0.00 0.00 0.00 0.00 0.00 0.00 0.00 0.00 0.00 0.00 0.00 0.00 0.00 0.00 0.00 0.00 0.00 0.00 0.00 0.00 0.00 0.00 0.00 0.00 0.00 0.00 0.00 0.00 0.00 0.00 0.00 0.00 0.00 0.00 0.00 0.00 0.00 0.00 0.00
0.01 0.00 0.00 0.00 0.00 0.00 0.00 0.00 0.00 0.00 0.00 0.00 0.00 0.00 0.00 0.00 0.00 0.00 0.00 0.00 0.00 0.00 0.00 0.00 0.00 0.00 0.00 0.00 0.00 0.00 0.00 0.00 0.00 0.00 0.00 0.00 0.00 0.00 0.00 0.00 0.00 0.00 0.00 0.00
0.01 0.01 0.00 0.00 0.00 0.00 0.00 0.00 0.00 0.00 0.00 0.00 0.00 0.00 0.00 0.00 0.00 0.00 0.00 0.00 0.00 0.00 0.00 0.00 0.00 0.00 0.00 0.00 0.00 0.00 0.00 0.00 0.00 0.00 0.00 0.00 0.00 0.00 0.00 0.00 0.00 0.00 0.00 0.00
0.00 0.00 0.00 0.00 0.00 0.00 0.00 0.00 0.00 0.00 0.00 0.00 0.00 0.00 0.00 0.00 0.00 0.00 0.00 0.00 0.00 0.00 0.00 0.00 0.00 0.00 0.00 0.00 0.00 0.00 0.00 0.00 0.00 0.00 0.00 0.00 0.00 0.00 0.00 0.00 0.00 0.00 0.00 0.00
0.00 0.00 0.00 0.00 0.00 0.00 0.00 0.00 0.00 0.00 0.00 0.00 0.00 0.00 0.00 0.00 0.00 0.00 0.00 0.00 0.00 0.00 0.00 0.00 0.00 0.00 0.00 0.00 0.00 0.00 0.00 0.00 0.00 0.00 0.00 0.00 0.00 0.00 0.00 0.00 0.00 0.00 0.00 0.00
0.00 0.00 0.00 0.00 0.00 0.00 0.00 0.00 0.00 0.00 0.00 0.00 0.00 0.00 0.00 0.00 0.00 0.00 0.00 0.00 0.00 0.00 0.00 0.00 0.00 0.00 0.00 0.00 0.00 0.00 0.00 0.00 0.00 0.00 0.00 0.00 0.00 0.00 0.00 0.00 0.00 0.00 0.00 0.00
0.00 0.00 0.00 0.00 0.00 0.00 0.00 0.00 0.00 0.00 0.00 0.00 0.00 0.00 0.00 0.00 0.00 0.00 0.00 0.00 0.00 0.00 0.00 0.00 0.00 0.00 0.00 0.00 0.00 0.00 0.00 0.00 0.00 0.00 0.00 0.00 0.00 0.00 0.00 0.00 0.00 0.00 0.00 0.00
0.00 0.00 0.00 0.00 0.00 0.00 0.00 0.00 0.00 0.00 0.00 0.00 0.00 0.00 0.00 0.00 0.00 0.00 0.00 0.00 0.00 0.00 0.00 0.00 0.00 0.00 0.00 0.00 0.00 0.00 0.00 0.00 0.00 0.00 0.00 0.00 0.00 0.00 0.00 0.00 0.00 0.00 0.00 0.00
0.00 0.00 0.00 0.00 0.00 0.00 0.00 0.00 0.00 0.00 0.00 0.00 0.00 0.00 0.00 0.00 0.00 0.00 0.00 0.00 0.00 0.00 0.00 0.00 0.00 0.00 0.00 0.00 0.00 0.00 0.00 0.00 0.00 0.00 0.00 0.00 0.00 0.00 0.00 0.00 0.00 0.00 0.00 0.00
0.00 0.00 0.00 0.00 0.00 0.00 0.00 0.00 0.00 0.00 0.00 0.00 0.00 0.00 0.00 0.00 0.00 0.00 0.00 0.00 0.00 0.00 0.00 0.00 0.00 0.00 0.00 0.00 0.00 0.00 0.00 0.00 0.00 0.00 0.00 0.00 0.00 0.00 0.00 0.00 0.00 0.00 0.00 0.00
0.00 0.00 0.00 0.00 0.00 0.00 0.00 0.00 0.00 0.00 0.00 0.00 0.00 0.00 0.00 0.00 0.00 0.00 0.00 0.00 0.00 0.00 0.00 0.00 0.00 0.00 0.00 0.00 0.00 0.00 0.00 0.00 0.00 0.00 0.00 0.00 0.00 0.00 0.00 0.00 0.00 0.00 0.00 0.00
0.00 0.00 0.00 0.00 0.00 0.00 0.00 0.00 0.00 0.00 0.00 0.00 0.00 0.00 0.00 0.00 0.00 0.00 0.00 0.00 0.00 0.00 0.00 0.00 0.00 0.00 0.00 0.00 0.00 0.00 0.00 0.00 0.00 0.00 0.00 0.00 0.00 0.00 0.00 0.00 0.00 0.00 0.00 0.00
0.00 0.00 0.00 0.00 0.00 0.00 0.00 0.00 0.00 0.00 0.00 0.00 0.00 0.00 0.00 0.00 0.00 0.00 0.00 0.00 0.00 0.00 0.00 0.00 0.00 0.00 0.00 0.00 0.00 0.00 0.00 0.00 0.00 0.00 0.00 0.00 0.00 0.00 0.00 0.00 0.00 0.00 0.00 0.00
0.00 0.00 0.00 0.00 0.00 0.00 0.00 0.00 0.00 0.00 0.00 0.00 0.00 0.00 0.00 0.00 0.00 0.00 0.00 0.00 0.00 0.00 0.00 0.00 0.00 0.00 0.00 0.00 0.00 0.00 0.00 0.00 0.00 0.00 0.00 0.00 0.00 0.00 0.00 0.00 0.00 0.00 0.00 0.00
0.00 0.00 0.00 0.00 0.00 0.00 0.00 0.00 0.00 0.00 0.00 0.00 0.00 0.00 0.00 0.00 0.00 0.00 0.00 0.00 0.00 0.00 0.00 0.00 0.00 0.00 0.00 0.00 0.00 0.00 0.00 0.00 0.00 0.00 0.00 0.00 0.00 0.00 0.00 0.00 0.00 0.00 0.00 0.00
0.00 0.00 0.00 0.00 0.00 0.00 0.00 0.00 0.00 0.00 0.00 0.00 0.00 0.00 0.00 0.00 0.00 0.00 0.00 0.00 0.00 0.00 0.00 0.00 0.00 0.00 0.00 0.00 0.00 0.00 0.00 0.00 0.00 0.00 0.00 0.00 0.00 0.00 0.00 0.00 0.00 0.00 0.00 0.00
0.00 0.00 0.00 0.00 0.00 0.00 0.00 0.00 0.00 0.00 0.00 0.00 0.00 0.00 0.00 0.00 0.00 0.00 0.00 0.00 0.00 0.00 0.00 0.00 0.00 0.00 0.00 0.00 0.00 0.00 0.00 0.00 0.00 0.00 0.00 0.00 0.00 0.00 0.00 0.00 0.00 0.00 0.00 0.00
0.00 0.00 0.00 0.00 0.00 0.00 0.00 0.00 0.00 0.00 0.00 0.00 0.00 0.00 0.00 0.00 0.00 0.00 0.00 0.00 0.00 0.00 0.00 0.00 0.00 0.00 0.00 0.00 0.00 0.00 0.00 0.00 0.00 0.00 0.00 0.00 0.00 0.00 0.00 0.00 0.00 0.00 0.00 0.00
0.00 0.00 0.00 0.00 0.00 0.00 0.00 0.00 0.00 0.00 0.00 0.00 0.00 0.00 0.00 0.00 0.00 0.00 0.00 0.00 0.00 0.00 0.00 0.00 0.00 0.00 0.00 0.00 0.00 0.00 0.00 0.00 0.00 0.00 0.00 0.00 0.00 0.00 0.00 0.00 0.00 0.00 0.00 0.00
0.00 0.00 0.00 0.00 0.00 0.00 0.00 0.00 0.00 0.00 0.00 0.00 0.00 0.00 0.00 0.00 0.00 0.00 0.00 0.00 0.00 0.00 0.00 0.00 0.00 0.00 0.00 0.00 0.00 0.00 0.00 0.00 0.00 0.00 0.00 0.00 0.00 0.00 0.00 0.00 0.00 0.00 0.00 0.00
0.00 0.00 0.00 0.00 0.00 0.00 0.00 0.00 0.00 0.00 0.00 0.00 0.00 0.00 0.00 0.00 0.00 0.00 0.00 0.00 0.00 0.00 0.00 0.00 0.00 0.00 0.00 0.00 0.00 0.00 0.00 0.00 0.00 0.00 0.00 0.00 0.00 0.00 0.00 0.00 0.00 0.00 0.00 0.00
0.00 0.00 0.00 0.00 0.00 0.00 0.00 0.00 0.00 0.00 0.00 0.00 0.00 0.00 0.00 0.00 0.00 0.00 0.00 0.00 0.00 0.00 0.00 0.00 0.00 0.00 0.00 0.00 0.00 0.00 0.00 0.00 0.00 0.00 0.00 0.00 0.00 0.00 0.00 0.00 0.00 0.00 0.00 0.00
0.00 0.00 0.00 0.00 0.00 0.00 0.00 0.00 0.00 0.00 0.00 0.00 0.00 0.00 0.00 0.00 0.00 0.00 0.00 0.00 0.00 0.00 0.00 0.00 0.00 0.00 0.00 0.00 0.00 0.00 0.00 0.00 0.00 0.00 0.00 0.00 0.00 0.00 0.00 0.00 0.00 0.00 0.00 0.00
MSLP
1015.06 1014.57 1014.35 1014.64 1015.06 1015.33 1015.83 1015.93 1016.03 1016.15 1017.64 1019.58 1020.82 1021.51 1021.64 1021.89 1021.66 1021.37 1021.08 1020.61 1020.17 1019.48 1018.61 1017.75 1016.77 1015.48 1014.12 1012.82 1011.07 1009.43 1008.98 1007.51 1007.01 1006.58 1005.95 1005.24 1004.51 1004.32 1004.09 1003.81 1004.21 1004.55 1004.95 1005.71
1014.92 1014.15 1014.20 1015.08 1015.91 1016.01 1016.61 1016.91 1017.03 1017.43 1018.95 1020.61 1021.37 1021.98 1022.26 1022.41 1022.38 1022.31 1022.01 1021.60 1020.97 1020.31 1019.49 1018.39 1017.26 1016.17 1015.02 1013.79 1012.75 1011.64 1010.13 1009.53 1009.20 1008.21 1007.62 1007.35 1006.85 1006.75 1006.13 1006.08 1006.28 1006.45 1007.00 1007.71
1014.18 1014.21 1014.73 1015.85 1016.44 1016.71 1017.21 1017.41 1017.55 1017.52 1019.43 1020.76 1021.67 1022.47 1023.17 1023.25 1023.35 1023.30 1023.01 1022.70 1022.25 1021.54 1020.75 1019.65 1018.50 1017.38 1016.16 1015.31 1014.30 1013.17 1012.31 1011.63 1011.11 1010.05 1009.14 1009.26 1009.07 1008.53 1008.14 1008.83 1008.61 1008.75 1009.06 1009.23
1014.31 1014.78 1014.68 1016.06 1016.89 1017.09 1017.55 1018.23 1018.49 1018.92 1019.83 1021.00 1022.25 1023.23 1023.94 1024.33 1024.41 1024.27 1024.15 1023.75 1023.20 1022.59 1021.78 1020.86 1019.76 1018.51 1017.48 1016.42 1015.49 1014.59 1014.28 1013.45 1012.52 1012.00 1011.45 1010.72 1010.16 1010.79 1010.49 1011.34 1010.05 1010.56 1010.90 1011.27
1013.93 1013.80 1015.19 1016.10 1016.77 1017.00 1017.23 1018.67 1019.17 1019.33 1020.27 1021.35 1022.28 1022.61 1024.00 1024.97 1025.30 1025.43 1025.37 1025.09 1024.75 1024.04 1023.20 1022.32 1021.11 1020.26 1019.12 1017.98 1017.21 1016.41 1015.81 1015.38 1014.89 1014.09 1013.51 1013.14 1012.07 1012.64 1012.09 1012.13 1011.49 1011.48 1011.69 1012.20
1013.86 1013.38 1014.05 1015.33 1016.69 1017.38 1017.64 1018.37 1019.57 1019.86 1020.35 1021.24 1022.21 1022.49 1024.72 1025.78 1026.02 1026.09 1026.13 1025.95 1025.58 1025.01 1024.29 1023.55 1022.58 1021.63 1020.78 1020.01 1019.19 1018.52 1018.18 1017.70 1016.89 1016.15 1015.85 1015.17 1015.15 1015.10 1014.49 1013.45 1013.59 1014.01 1013.33 1014.31
1013.89 1013.81 1015.05 1016.69 1017.42 1017.81 1018.41 1019.70 1020.11 1020.43 1021.08 1021.77 1022.87 1024.11 1025.73 1026.42 1026.74 1026.88 1026.84 1026.53 1026.37 1025.80 1025.24 1024.70 1023.92 1023.15 1022.15 1021.66 1020.96 1020.87 1020.23 1019.51 1018.84 1018.35 1017.70 1017.29 1017.01 1016.57 1016.07 1015.35 1014.50 1014.90 1015.19 1015.31
1014.63 1014.99 1016.51 1017.90 1018.11 1018.34 1019.52 1020.27 1021.03 1021.79 1022.71 1023.50 1024.53 1025.60 1026.38 1027.00 1027.22 1027.30 1027.19 1026.99 1026.75 1026.36 1026.05 1025.68 1024.86 1024.05 1023.41 1022.81 1022.91 1022.24 1021.47 1020.82 1020.32 1019.74 1019.26 1018.87 1018.34 1018.02 1017.55 1016.94 1016.88 1016.79 1016.71 1016.63
1016.36 1016.87 1018.33 1019.02 1019.11 1019.62 1020.17 1020.94 1021.99 1022.82 1023.97 1024.71 1025.38 1026.16 1026.83 1027.24 1027.40 1027.52 1027.49 1027.40 1027.26 1027.03 1026.69 1026.21 1025.70 1025.17 1024.54 1024.40 1023.81 1023.25 1022.63 1022.01 1021.66 1021.19 1020.69 1020.26 1019.80 1019.53 1019.03 1018.73 1018.43 1018.13 1017.86 1017.66
1017.21 1018.55 1019.27 1020.02 1020.49 1020.65 1021.23 1022.14 1023.06 1024.00 1024.77 1025.42 1026.09 1026.78 1027.25 1027.55 1027.64 1027.75 1027.71 1027.64 1027.39 1027.09 1026.97 1026.73 1026.39 1025.87 1025.55 1025.27 1024.57 1024.01 1023.50 1023.09 1022.82 1022.44 1022.07 1022.03 1021.66 1021.45 1021.23 1020.83 1020.43 1020.15 1019.75 1019.60
1018.23 1019.15 1019.91 1020.76 1021.35 1021.78 1022.47 1023.25 1024.03 1024.83 1025.41 1026.00 1026.48 1027.07 1027.51 1027.79 1027.99 1028.06 1027.97 1027.95 1027.86 1027.63 1027.42 1027.21 1027.07 1026.64 1026.26 1025.81 1025.27 1024.53 1024.21 1023.85 1023.42 1023.08 1022.89 1022.72 1023.01 1023.13 1022.85 1023.18 1022.81 1022.09 1021.67 1021.30
1017.05 1018.19 1019.06 1020.56 1021.80 1022.43 1023.06 1023.83 1024.57 1025.09 1025.75 1026.31 1026.76 1027.12 1027.36 1027.63 1027.87 1027.86 1028.00 1028.06 1027.92 1027.99 1027.93 1027.88 1027.71 1027.52 1026.93 1026.46 1026.11 1025.51 1024.94 1024.65 1024.55 1024.19 1023.88 1023.67 1023.57 1023.49 1024.19 1024.35 1024.27 1024.03 1023.56 1022.96
1018.02 1018.97 1019.61 1021.00 1022.08 1022.72 1023.31 1024.07 1024.70 1025.22 1025.81 1026.23 1026.73 1026.99 1027.41 1027.91 1028.45 1028.84 1028.65 1028.77 1028.75 1028.85 1028.73 1028.85 1028.78 1028.64 1028.16 1027.66 1027.15 1026.59 1026.23 1025.81 1025.41 1025.17 1024.90 1024.71 1024.55 1024.33 1024.09 1024.07 1024.18 1024.47 1024.39 1024.03
1018.95 1019.56 1020.83 1021.63 1022.15 1022.93 1023.65 1024.39 1025.01 1025.47 1025.95 1026.44 1027.03 1027.57 1028.02 1028.52 1028.95 1029.19 1029.57 1029.79 1029.84 1029.81 1029.91 1029.89 1029.91 1029.87 1029.33 1028.67 1028.36 1027.74 1027.08 1026.99 1026.46 1026.42 1026.14 1025.81 1025.66 1025.47 1025.17 1024.83 1024.50 1024.53 1024.55 1024.55
1019.38 1019.50 1020.15 1021.22 1022.38 1023.11 1023.81 1024.46 1025.03 1025.64 1026.38 1027.01 1027.62 1028.21 1028.79 1029.38 1029.95 1030.53 1030.75 1030.77 1030.76 1030.81 1030.93 1030.87 1030.83 1030.64 1030.14 1029.49 1028.88 1028.52 1028.04 1027.85 1027.39 1027.11 1027.03 1026.78 1026.31 1025.94 1025.68 1025.41 1025.18 1025.04 1024.98 1024.87
1019.54 1019.81 1020.58 1021.47 1022.39 1023.17 1023.81 1024.42 1025.07 1025.91 1026.66 1027.40 1028.12 1028.99 1029.70 1030.22 1030.54 1030.95 1031.29 1031.49 1031.26 1031.67 1031.98 1032.03 1031.80 1031.72 1031.23 1030.52 1029.52 1028.93 1028.63 1028.87 1028.14 1027.60 1027.35 1027.09 1026.87 1026.61 1026.41 1026.23 1025.99 1025.90 1025.90 1026.26
1019.29 1020.08 1020.69 1021.56 1022.31 1023.14 1023.94 1024.59 1025.47 1026.30 1027.13 1027.87 1028.82 1029.67 1030.11 1030.70 1031.16 1031.61 1031.95 1032.13 1032.63 1032.77 1032.59 1032.53 1032.42 1032.33 1031.93 1031.37 1030.28 1029.66 1029.21 1028.94 1028.96 1028.37 1028.24 1028.13 1027.70 1027.45 1027.23 1026.94 1026.72 1026.49 1026.31 1026.84
1019.26 1019.95 1020.74 1021.54 1022.37 1023.34 1024.30 1025.37 1026.14 1026.98 1027.77 1028.68 1029.72 1030.48 1030.92 1031.07 1031.47 1032.03 1032.43 1032.75 1033.02 1032.91 1032.80 1032.85 1032.66 1032.38 1032.08 1031.61 1030.93 1030.22 1029.89 1029.63 1029.41 1029.26 1028.92 1028.88 1028.75 1028.22 1027.93 1027.68 1027.43 1027.22 1027.09 1027.04
1019.77 1020.35 1021.19 1022.08 1022.93 1023.87 1025.00 1026.11 1026.95 1027.72 1028.85 1029.71 1030.37 1030.91 1031.25 1031.66 1031.94 1032.41 1032.82 1032.91 1032.79 1032.41 1032.80 1032.89 1032.75 1032.41 1032.07 1031.99 1031.23 1030.54 1030.42 1030.24 1029.91 1029.64 1029.62 1029.43 1029.08 1028.83 1028.52 1028.33 1027.97 1027.69 1027.49 1027.24
1020.59 1021.30 1021.97 1022.82 1023.67 1024.71 1025.93 1027.01 1027.97 1028.72 1029.53 1030.09 1030.80 1031.50 1031.71 1032.03 1032.35 1032.69 1032.89 1032.50 1032.40 1032.31 1032.77 1032.80 1032.65 1032.32 1032.11 1031.97 1031.96 1030.76 1030.69 1030.47 1030.16 1029.93 1029.87 1029.73 1029.41 1029.11 1028.84 1028.61 1028.49 1028.09 1027.81 1027.57
1021.46 1022.22 1023.13 1024.13 1025.13 1026.13 1026.97 1027.85 1028.57 1029.38 1030.10 1030.64 1031.06 1031.50 1031.52 1031.92 1032.29 1032.57 1032.62 1031.81 1032.20 1032.69 1032.74 1032.81 1032.48 1031.97 1031.74 1031.93 1031.23 1030.88 1030.72 1030.54 1030.27 1030.04 1029.87 1029.63 1029.42 1029.05 1028.83 1028.59 1028.38 1028.14 1027.89 1027.71
1022.32 1023.19 1024.11 1025.01 1025.89 1026.94 1027.89 1028.56 1029.21 1029.81 1030.37 1030.97 1031.41 1031.58 1031.63 1031.61 1031.99 1032.29 1032.44 1032.00 1031.81 1032.51 1032.45 1032.08 1031.86 1032.28 1032.02 1032.50 1031.02 1030.98 1030.85 1030.62 1030.33 1030.04 1029.72 1029.48 1029.23 1028.95 1028.67 1028.44 1028.19 1027.96 1027.76 1027.57
1022.97 1023.88 1024.76 1025.60 1026.38 1027.32 1028.36 1028.99 1029.48 1029.79 1030.33 1030.88 1031.19 1031.23 1030.98 1030.78 1030.97 1031.01 1030.97 1031.59 1031.91 1032.12 1032.07 1031.69 1032.34 1032.64 1032.57 1031.79 1031.17 1031.06 1030.87 1030.63 1030.34 1030.06 1029.79 1029.48 1029.19 1028.88 1028.54 1028.22 1027.93 1027.66 1027.47 1027.25
1023.56 1024.48 1025.33 1026.27 1027.20 1027.76 1028.25 1029.02 1029.34 1029.83 1030.21 1030.53 1030.85 1031.06 1030.88 1030.96 1030.93 1031.06 1031.13 1031.65 1032.01 1032.18 1031.90 1032.08 1032.35 1032.59 1032.70 1031.39 1031.27 1031.13 1030.91 1030.61 1030.34 1030.05 1029.76 1029.48 1029.02 1028.72 1028.43 1028.15 1027.86 1027.47 1027.07 1026.79
1023.97 1024.91 1025.78 1026.29 1026.59 1026.96 1027.59 1028.41 1028.87 1029.41 1029.73 1029.77 1030.08 1030.61 1031.04 1031.05 1031.05 1030.98 1031.37 1031.53 1031.94 1031.97 1031.73 1032.85 1032.84 1032.49 1031.76 1031.63 1031.59 1031.47 1031.20 1030.82 1030.54 1030.40 1029.94 1029.59 1029.18 1028.81 1028.49 1028.10 1027.73 1027.37 1027.02 1026.62
1023.89 1024.40 1025.04 1025.48 1025.57 1026.20 1026.87 1027.65 1027.79 1028.31 1028.70 1029.09 1029.54 1030.01 1030.55 1030.94 1031.12 1031.33 1031.49 1031.82 1031.87 1032.06 1032.02 1032.21 1032.67 1032.48 1032.14 1032.05 1031.99 1031.77 1031.52 1031.07 1030.76 1030.59 1030.45 1029.95 1029.55 1029.19 1028.76 1028.36 1027.93 1027.43 1026.98 1026.48
1023.80 1024.29 1024.79 1025.23 1025.61 1026.02 1026.56 1026.99 1027.31 1027.80 1028.42 1028.63 1029.02 1030.04 1030.51 1030.96 1031.31 1031.42 1031.82 1031.90 1032.12 1032.36 1032.48 1032.59 1032.67 1033.04 1033.16 1032.88 1032.33 1032.20 1031.91 1031.60 1031.55 1031.42 1031.00 1030.58 1030.21 1029.87 1029.53 1029.21 1028.68 1028.21 1027.67 1027.11
Thickness
5426 5437 5445 5440 5436 5439 5422 5433 5432 5440 5421 5394 5383 5379 5380 5376 5378 5379 5378 5382 5386 5392 5399 5406 5413 5419 5429 5441 5458 5469 5475 5490 5498 5507 5516 5528 5539 5547 5555 5562 5565 5568 5568 5566
5423 5447 5446 5426 5416 5427 5411 5411 5411 5412 5401 5384 5385 5379 5378 5374 5373 5372 5374 5374 5381 5387 5394 5404 5412 5419 5427 5435 5443 5451 5466 5472 5479 5492 5501 5508 5516 5523 5532 5537 5540 5542 5542 5541
5446 5442 5432 5426 5411 5407 5402 5408 5417 5439 5400 5387 5383 5375 5367 5368 5367 5366 5369 5370 5373 5379 5384 5394 5402 5411 5419 5425 5433 5441 5450 5453 5461 5474 5484 5484 5494 5503 5509 5508 5513 5515 5515 5518
5444 5429 5455 5410 5402 5408 5406 5398 5404 5400 5398 5389 5375 5365 5361 5359 5359 5361 5361 5364 5368 5373 5379 5385 5393 5403 5412 5420 5426 5431 5433 5440 5448 5455 5462 5473 5481 5480 5486 5479 5492 5492 5492 5493
5444 5457 5426 5416 5409 5414 5418 5399 5398 5403 5394 5385 5378 5383 5366 5355 5353 5351 5351 5354 5355 5361 5368 5374 5383 5389 5399 5408 5414 5418 5422 5424 5430 5437 5445 5449 5460 5459 5465 5467 5478 5479 5479 5477
5453 5467 5465 5436 5414 5410 5414 5423 5394 5398 5398 5392 5387 5406 5368 5349 5348 5348 5346 5347 5350 5354 5360 5364 5372 5380 5384 5389 5396 5401 5403 5406 5413 5419 5422 5430 5430 5432 5439 5449 5452 5449 5459 5454
5453 5466 5442 5407 5403 5407 5425 5413 5388 5395 5392 5392 5384 5373 5348 5344 5341 5341 5341 5343 5343 5348 5351 5355 5361 5367 5374 5377 5381 5381 5386 5391 5396 5400 5405 5409 5413 5416 5423 5430 5440 5438 5437 5438
5449 5459 5454 5393 5401 5416 5392 5383 5380 5377 5370 5364 5356 5348 5342 5338 5337 5338 5339 5340 5341 5343 5345 5347 5354 5359 5363 5367 5366 5370 5375 5380 5384 5389 5392 5395 5400 5403 5406 5411 5414 5417 5420 5420
5412 5416 5384 5382 5387 5388 5387 5381 5375 5369 5360 5355 5350 5346 5342 5339 5338 5337 5337 5337 5338 5338 5340 5343 5347 5350 5354 5354 5358 5362 5365 5369 5371 5375 5379 5382 5386 5388 5392 5394 5397 5400 5403 5405
5399 5379 5377 5374 5375 5380 5379 5371 5366 5359 5353 5350 5344 5339 5337 5337 5337 5336 5335 5335 5338 5339 5339 5340 5341 5345 5346 5347 5352 5355 5358 5360 5361 5362 5364 5364 5366 5367 5369 5372 5376 5378 5380 5380
5377 5373 5373 5369 5367 5367 5364 5359 5354 5350 5347 5343 5341 5336 5334 5333 5332 5332 5333 5334 5334 5335 5336 5338 5338 5340 5341 5343 5345 5350 5351 5352 5354 5356 5356 5356 5353 5351 5353 5349 5352 5357 5358 5359
5415 5389 5389 5372 5362 5361 5357 5352 5349 5347 5344 5341 5339 5337 5337 5336 5335 5336 5334 5333 5335 5334 5334 5333 5333 5332 5336 5338 5338 5340 5344 5345 5342 5343 5344 5344 5343 5343 5335 5332 5332 5333 5334 5337
5383 5377 5376 5365 5358 5358 5355 5351 5349 5347 5344 5342 5340 5340 5338 5334 5328 5324 5328 5327 5326 5325 5327 5324 5323 5321 5324 5326 5328 5331 5331 5333 5333 5331 5331 5330 5329 5329 5329 5326 5322 5318 5317 5318
5371 5368 5356 5356 5354 5353 5351 5347 5344 5343 5341 5338 5334 5331 5329 5326 5323 5322 5319 5317 5317 5316 5315 5315 5312 5310 5313 5316 5316 5318 5321 5318 5319 5316 5315 5314 5312 5310 5309 5308 5307 5304 5300 5297
5363 5368 5365 5360 5352 5349 5348 5344 5341 5338 5333 5329 5326 5322 5318 5314 5310 5306 5306 5307 5307 5306 5304 5304 5302 5301 5303 5306 5308 5307 5307 5304 5304 5302 5299 5297 5297 5296 5293 5291 5289 5286 5282 5278
5356 5360 5358 5354 5350 5346 5344 5342 5340 5334 5330 5325 5321 5315 5310 5307 5306 5304 5301 5299 5302 5297 5293 5290 5291 5290 5291 5293 5297 5298 5296 5288 5290 5290 5286 5283 5279 5275 5271 5267 5264 5260 5254 5245
5354 5352 5354 5349 5348 5345 5342 5340 5336 5331 5325 5322 5314 5309 5307 5302 5299 5296 5293 5291 5286 5284 5285 5283 5281 5279 5280 5280 5284 5284 5282 5279 5273 5272 5266 5261 5258 5254 5249 5245 5239 5234 5229 5216
5358 5356 5354 5351 5347 5342 5337 5331 5328 5323 5318 5312 5304 5299 5296 5298 5295 5289 5284 5281 5278 5278 5277 5273 5272 5271 5270 5268 5267 5267 5264 5260 5255 5250 5246 5239 5233 5230 5224 5218 5212 5204 5196 5187
5352 5351 5348 5344 5341 5337 5330 5323 5319 5313 5304 5297 5295 5294 5292 5288 5286 5281 5276 5274 5274 5277 5270 5266 5263 5261 5259 5254 5254 5252 5246 5241 5237 5231 5223 5216 5210 5203 5196 5187 5179 5171 5162 5154
5343 5342 5341 5337 5332 5327 5319 5310 5304 5300 5295 5293 5289 5285 5285 5280 5276 5273 5270 5274 5272 5269 5261 5258 5254 5251 5246 5242 5237 5237 5230 5224 5218 5211 5201 5192 5184 5176 5167 5157 5145 5136 5126 5118
5333 5330 5324 5318 5313 5309 5304 5299 5296 5292 5288 5285 5286 5283 5282 5277 5271 5267 5266 5275 5265 5256 5252 5247 5244 5241 5236 5228 5225 5219 5213 5205 5197 5188 5178 5169 5159 5149 5138 5127 5115 5107 5101 5095
5321 5317 5311 5306 5303 5297 5293 5292 5289 5285 5282 5278 5275 5274 5273 5273 5266 5261 5258 5261 5258 5247 5244 5241 5235 5226 5220 5212 5210 5202 5193 5185 5176 5167 5157 5146 5135 5123 5111 5102 5095 5089 5083 5077
5315 5310 5305 5300 5297 5293 5286 5284 5282 5281 5277 5274 5271 5272 5274 5275 5270 5266 5265 5253 5246 5239 5234 5230 5219 5211 5204 5199 5193 5184 5174 5165 5155 5144 5133 5121 5109 5099 5092 5085 5078 5071 5065 5060
5307 5302 5298 5292 5284 5284 5285 5279 5278 5276 5274 5271 5268 5265 5266 5263 5260 5255 5250 5240 5233 5226 5223 5214 5206 5197 5189 5185 5175 5165 5155 5145 5134 5123 5111 5098 5090 5081 5073 5066 5059 5053 5049 5043
5302 5295 5289 5287 5290 5291 5287 5280 5279 5275 5271 5272 5267 5261 5254 5252 5249 5245 5237 5231 5222 5216 5212 5198 5190 5182 5176 5166 5155 5144 5134 5124 5112 5098 5088 5079 5071 5063 5054 5047 5041 5035 5030 5025
5301 5300 5296 5295 5298 5294 5289 5282 5283 5278 5273 5269 5263 5257 5250 5243 5237 5231 5225 5217 5211 5203 5196 5186 5174 5165 5157 5147 5135 5124 5113 5102 5090 5078 5067 5060 5052 5043 5036 5028 5022 5016 5010 5006
5300 5298 5295 5293 5292 5289 5285 5282 5279 5273 5266 5264 5258 5246 5240 5232 5225 5220 5211 5205 5197 5188 5179 5169 5159 5147 5136 5125 5116 5104 5092 5080 5068 5057 5049 5041 5032 5024 5015 5007 5001 4994 4988 4983